Wind_Speed
7 7 8 8 8 9 9 9 10 9 9 9 9 8 7 7 6 6 6 6 6 6 6 6 6 6 6 6 6 6 6 6 6 5 6 6 6 6 6 6 6 7 7
9 9 10 10 10 10 10 11 11 11 11 11 10 9 9 8 7 7 7 7 7 7 7 7 7 7 7 7 7 6 6 6 6 6 6 7 7 6 6 6 6 7 7
10 11 12 12 12 12 12 12 12 12 12 12 11 10 10 9 9 9 8 8 8 8 8 8 8 8 8 8 7 7 7 7 7 7 7 7 7 7 6 6 7 7 8
11 12 14 14 14 13 13 13 13 13 13 13 12 11 10 10 10 10 9 9 10 10 10 10 9 9 9 9 9 9 8 8 8 8 8 7 7 8 7 7 8 8 9
13 15 15 15 15 15 15 15 14 14 14 13 13 12 11 11 11 11 11 11 11 11 11 11 11 10 10 10 10 10 10 9 9 9 9 8 9 9 9 9 9 10 10
14 16 17 16 16 15 16 16 16 15 15 14 14 14 13 13 13 12 12 12 12 12 12 12 12 11 11 11 11 11 11 11 10 10 10 10 10 11 11 11 11 12 12
16 17 17 17 16 16 16 17 17 17 16 16 16 15 15 15 14 14 14 14 14 13 13 13 13 13 12 12 12 12 12 12 12 11 11 12 12 12 12 12 13 13 13
18 18 17 17 16 16 17 17 16 16 17 17 17 17 17 16 16 16 16 16 15 15 15 15 14 14 14 14 14 14 13 14 14 14 13 13 13 14 14 14 14 14 14
19 19 18 17 17 17 17 17 18 18 18 18 18 18 18 18 18 17 17 17 17 17 16 16 16 16 15 15 15 15 15 15 15 16 15 15 14 14 15 15 14 15 15
20 19 18 17 18 18 18 18 19 19 19 19 19 19 19 19 19 19 18 18 19 19 18 18 18 17 16 17 16 16 16 16 16 17 17 17 16 16 16 16 16 16 16
20 19 19 19 19 19 19 19 20 20 20 20 21 21 20 20 20 20 19 19 20 20 20 20 20 19 19 18 18 18 18 18 18 18 18 18 18 18 17 17 17 17 18
20 20 20 20 20 20 20 20 21 21 22 22 22 22 22 22 21 21 21 21 21 22 22 22 22 21 21 20 19 19 19 19 19 19 19 19 19 19 19 19 19 19 19
20 20 20 21 21 21 21 21 22 22 23 23 24 23 23 23 23 23 23 23 23 24 24 24 23 22 21 21 21 20 20 21 21 21 20 20 21 21 21 21 21 20 20
21 21 22 22 22 22 22 22 23 23 23 23 23 24 24 24 24 24 24 24 24 25 25 25 24 23 23 22 22 22 22 22 23 23 23 22 22 23 23 23 22 22 22
23 23 23 23 23 22 22 23 23 23 24 24 24 24 25 26 26 26 26 26 26 26 26 25 25 24 24 24 24 24 24 24 24 24 24 24 23 22 23 22 23 23 23
23 23 23 24 23 23 23 23 24 24 25 25 26 26 26 26 26 26 27 27 27 26 26 26 26 26 26 26 26 25 25 25 25 24 24 25 24 24 24 24 24 24 24
23 24 24 24 24 24 24 25 25 25 25 26 27 27 27 27 27 27 27 27 27 27 28 27 27 27 27 27 26 26 26 26 26 26 26 26 25 25 25 26 26 25 25
24 24 25 25 25 26 26 26 27 27 27 27 27 27 28 29 29 29 29 28 28 28 29 29 29 29 28 28 27 27 27 27 27 27 27 26 26 26 26 27 27 26 26
25 25 26 26 26 27 27 27 27 28 28 27 28 29 29 30 30 30 30 30 30 30 30 30 30 29 28 28 28 28 28 28 28 28 28 27 27 27 27 27 28 28 28
25 25 26 27 27 27 27 28 27 28 28 28 29 29 29 30 30 30 30 30 30 31 31 31 31 30 29 29 29 29 29 30 29 28 28 28 28 28 28 28 28 28 29
26 26 27 27 27 27 27 28 28 29 28 29 30 29 29 29 30 29 30 30 30 30 31 32 32 31 30 30 30 30 29 29 29 29 28 29 29 29 28 28 28 29 29
26 26 26 27 27 28 28 29 29 29 29 30 30 29 30 29 28 29 29 30 31 30 31 31 31 31 31 31 31 31 31 29 28 29 29 29 29 29 28 28 28 28 29
26 26 26 27 27 28 29 29 30 29 30 29 30 31 29 29 28 29 29 30 30 30 30 30 30 31 30 31 31 31 30 29 29 29 30 30 30 30 29 29 29 28 29
26 27 27 27 27 28 29 30 31 30 29 29 30 30 29 28 28 28 28 29 29 30 30 30 30 30 30 30 30 30 30 30 29 29 29 30 30 30 30 29 29 29 30
25 26 26 27 28 29 29 29 30 29 29 28 29 28 28 27 27 27 27 28 28 29 29 29 29 29 30 30 30 30 30 30 29 29 29 30 30 30 30 30 30 30 30
26 27 27 28 28 29 29 29 29 28 28 27 27 26 26 26 26 26 26 27 27 28 28 28 29 29 30 30 29 29 29 29 29 29 28 29 29 29 29 30 30 30 30
Wind_Direction
338 334 335 336 336 333 326 322 320 319 317 316 316 318 318 316 314 314 314 314 315 312 312 311 308 309 307 305 304 304 301 302 302 297 293 286 277 267 255 246 243 240 235
334 330 327 326 325 322 317 314 313 313 313 311 311 313 313 310 308 307 305 304 303 302 301 301 300 299 297 295 294 294 294 295 297 294 291 287 279 270 261 253 250 243 240
330 325 322 319 317 316 313 310 308 307 307 306 305 306 306 305 303 302 299 298 295 294 294 294 294 293 293 291 288 287 289 290 291 291 289 286 277 269 262 258 256 251 247
324 318 316 313 310 309 308 305 302 302 302 302 301 301 300 300 299 298 295 293 291 290 289 288 288 288 289 288 286 283 283 285 287 288 287 285 277 270 262 258 256 251 248
322 319 315 310 306 304 303 301 299 298 297 297 298 297 296 294 294 293 292 290 289 289 287 286 286 285 287 286 284 282 281 280 281 282 283 280 275 270 264 260 258 252 249
323 322 314 308 303 301 299 298 296 295 294 293 294 294 293 290 290 289 289 289 288 288 286 284 283 283 284 285 284 282 281 279 276 277 276 274 271 268 265 261 256 251 249
320 320 316 305 301 299 297 295 292 293 291 290 290 289 289 288 287 287 287 286 285 285 283 281 278 280 281 282 281 279 279 277 275 274 273 270 268 266 263 260 256 250 247
317 316 313 305 302 299 296 293 291 292 290 288 288 286 286 286 286 285 284 283 282 282 281 278 276 278 278 278 278 276 276 274 273 271 269 268 267 265 263 260 256 250 248
317 315 311 305 302 300 295 292 291 291 289 287 285 284 284 284 283 283 283 282 281 281 280 278 275 275 277 276 276 274 273 272 271 269 267 266 266 263 261 259 254 252 248
316 314 310 303 299 297 295 292 289 288 287 286 284 283 282 282 281 281 282 281 280 279 278 277 274 274 274 274 274 272 271 270 270 269 267 265 263 262 261 259 254 252 250
313 311 307 303 299 297 295 293 291 288 287 284 282 282 282 281 280 279 280 281 281 278 277 277 274 272 272 272 272 270 269 269 269 269 267 265 263 261 260 259 255 255 253
310 307 303 300 299 297 296 294 293 289 287 284 282 281 280 280 279 278 277 279 279 278 278 277 275 273 270 270 269 269 268 267 268 268 266 264 263 262 260 260 257 255 254
306 303 300 299 297 296 294 296 295 290 286 284 280 281 279 279 279 278 277 277 278 278 277 275 276 273 271 270 268 267 266 266 266 266 265 264 263 262 260 259 258 256 254
302 300 298 298 295 294 292 294 293 291 287 283 282 282 279 280 282 282 279 278 278 278 276 273 273 274 272 270 269 268 266 266 266 266 265 264 264 263 261 260 259 256 253
300 297 294 294 293 292 292 292 291 291 288 285 285 282 280 280 281 282 283 279 278 277 276 274 273 274 273 271 269 268 268 266 265 267 266 264 264 263 262 261 259 257 255
295 294 293 293 293 293 292 291 290 289 289 285 282 282 282 281 280 282 282 279 278 276 275 274 273 272 272 271 270 269 269 267 267 267 266 264 263 263 262 261 259 257 256
294 293 293 293 292 292 290 290 288 287 289 287 284 281 282 281 280 280 279 278 277 275 274 273 271 270 270 271 270 269 268 267 268 267 265 264 264 264 263 261 259 256 255
293 293 293 291 291 291 290 290 288 286 285 286 285 282 282 281 279 278 277 277 274 274 273 271 271 269 269 271 271 270 269 268 268 267 266 263 263 263 263 261 259 258 256
292 291 292 291 290 290 288 287 286 286 286 287 286 284 285 282 280 279 277 274 273 272 272 271 270 269 269 270 271 271 271 270 269 267 265 264 264 264 263 261 260 259 257
290 290 290 290 290 291 290 288 289 288 288 288 288 285 285 285 283 281 277 273 272 271 271 270 269 270 268 269 271 272 272 271 268 266 264 263 265 265 263 260 260 259 257
288 288 288 289 290 291 292 292 291 291 290 289 288 287 287 287 284 281 277 275 274 273 270 269 269 269 268 269 270 271 271 271 270 267 265 263 263 263 262 260 259 257 255
287 288 288 289 290 291 292 292 291 289 291 292 289 288 288 286 283 279 277 276 274 272 271 269 269 269 268 268 270 270 270 270 270 268 266 264 263 262 262 260 259 258 257
289 289 289 290 292 293 294 294 293 292 292 291 290 288 288 287 285 282 278 277 276 274 271 270 268 268 268 268 269 269 269 268 269 268 267 265 263 261 261 260 259 260 259
291 289 290 291 293 293 296 295 295 293 292 290 289 288 289 290 286 284 279 277 276 273 270 267 267 267 266 267 270 270 269 267 268 268 267 266 264 262 261 260 259 259 259
293 293 293 292 294 296 297 298 296 295 294 290 290 290 289 289 288 285 280 278 275 272 270 268 268 267 265 266 268 268 267 267 268 268 266 266 265 263 262 261 260 259 258
293 293 294 294 295 296 296 297 296 296 295 293 293 291 289 289 289 288 283 280 278 274 271 269 268 267 265 267 268 268 267 265 265 266 265 264 264 264 263 261 260 259 257
Height
5907 5906 5905 5904 5903 5902 5901 5900 5899 5898 5897 5896 5895 5894 5892 5891 5890 5889 5889 5888 5887 5887 5886 5886 5885 5885 5884 5884 5883 5883 5882 5882 5881 5881 5880 5879 5879 5878 5878 5878 5878 5878 5878
5906 5905 5904 5903 5902 5901 5900 5899 5898 5896 5895 5894 5893 5892 5891 5890 5889 5888 5887 5886 5886 5885 5885 5884 5883 5883 5882 5882 5882 5881 5881 5880 5880 5879 5879 5878 5877 5877 5877 5877 5877 5877 5877
5904 5903 5902 5901 5900 5899 5898 5897 5896 5895 5893 5892 5891 5890 5889 5888 5887 5886 5885 5885 5884 5883 5883 5882 5882 5881 5880 5880 5879 5879 5879 5878 5878 5877 5877 5876 5876 5875 5875 5875 5875 5875 5875
5903 5901 5900 5899 5898 5897 5896 5895 5894 5893 5891 5890 5889 5888 5887 5886 5885 5884 5883 5882 5882 5881 5881 5880 5880 5879 5878 5878 5877 5877 5877 5876 5876 5875 5875 5874 5874 5874 5874 5873 5873 5873 5874
5901 5899 5898 5896 5895 5894 5893 5892 5891 5890 5889 5888 5887 5885 5884 5883 5882 5882 5881 5880 5880 5879 5878 5878 5877 5877 5876 5876 5875 5875 5874 5874 5873 5873 5873 5872 5872 5872 5872 5872 5871 5872 5872
5899 5897 5895 5894 5892 5891 5890 5889 5888 5887 5886 5885 5884 5883 5882 5881 5880 5879 5878 5878 5877 5877 5876 5875 5875 5874 5874 5873 5873 5872 5872 5872 5871 5870 5870 5870 5870 5870 5869 5869 5869 5869 5870
5896 5894 5892 5891 5889 5888 5887 5885 5885 5884 5883 5882 5880 5879 5878 5878 5877 5876 5875 5875 5874 5874 5873 5872 5872 5871 5871 5870 5870 5869 5869 5869 5868 5868 5868 5867 5867 5867 5867 5867 5867 5867 5867
5894 5891 5889 5888 5886 5885 5884 5882 5881 5880 5879 5878 5877 5876 5875 5874 5873 5873 5872 5871 5871 5870 5870 5869 5869 5868 5868 5867 5867 5866 5866 5866 5865 5865 5865 5864 5864 5864 5864 5864 5864 5864 5864
5891 5889 5886 5885 5883 5882 5880 5879 5878 5877 5875 5874 5873 5872 5871 5871 5870 5869 5868 5868 5867 5867 5866 5865 5865 5864 5864 5864 5863 5863 5862 5862 5862 5861 5861 5861 5861 5861 5861 5861 5861 5861 5861
5888 5886 5883 5882 5880 5879 5877 5875 5874 5873 5871 5870 5869 5868 5867 5866 5865 5865 5864 5864 5863 5862 5862 5861 5861 5861 5860 5860 5859 5859 5858 5858 5858 5857 5857 5857 5857 5857 5857 5857 5857 5858 5858
5885 5883 5880 5878 5877 5875 5873 5872 5870 5869 5867 5866 5865 5864 5862 5862 5861 5860 5860 5859 5859 5858 5857 5857 5856 5856 5855 5855 5855 5854 5854 5854 5854 5853 5853 5853 5853 5853 5853 5853 5853 5854 5854
5882 5880 5877 5875 5873 5871 5869 5867 5866 5864 5862 5861 5860 5859 5858 5857 5856 5855 5855 5854 5854 5853 5852 5852 5851 5851 5850 5850 5850 5849 5849 5849 5849 5849 5849 5849 5849 5849 5849 5849 5849 5849 5850
5879 5876 5874 5872 5869 5867 5865 5863 5862 5860 5858 5856 5855 5854 5853 5852 5851 5850 5850 5849 5848 5848 5847 5847 5846 5846 5845 5845 5845 5844 5844 5844 5844 5844 5844 5844 5844 5844 5844 5844 5844 5845 5845
5875 5873 5870 5868 5866 5864 5861 5859 5857 5855 5853 5852 5851 5849 5848 5847 5846 5845 5844 5844 5843 5842 5841 5841 5841 5840 5840 5840 5839 5839 5839 5839 5839 5839 5839 5839 5839 5839 5839 5839 5839 5839 5840
5871 5868 5866 5864 5862 5859 5857 5855 5853 5851 5849 5847 5846 5844 5843 5842 5841 5840 5839 5838 5837 5837 5836 5836 5835 5835 5834 5834 5834 5834 5834 5833 5833 5833 5833 5833 5834 5834 5834 5834 5834 5834 5835
5866 5863 5861 5859 5857 5855 5852 5850 5848 5846 5843 5841 5840 5839 5837 5836 5835 5834 5833 5832 5831 5830 5830 5830 5829 5829 5828 5828 5827 5827 5827 5827 5827 5827 5827 5827 5828 5828 5828 5828 5828 5829 5829
5861 5858 5856 5854 5852 5849 5847 5844 5842 5840 5838 5836 5834 5833 5831 5830 5829 5828 5827 5826 5825 5824 5824 5823 5822 5822 5822 5821 5821 5820 5821 5821 5821 5820 5820 5821 5821 5821 5822 5822 5823 5823 5824
5855 5853 5851 5849 5847 5844 5841 5839 5837 5835 5832 5830 5828 5826 5825 5823 5822 5821 5820 5819 5818 5818 5817 5816 5816 5815 5815 5814 5814 5813 5813 5814 5814 5814 5814 5814 5814 5815 5815 5816 5816 5817 5818
5850 5848 5846 5843 5841 5838 5836 5833 5831 5829 5826 5824 5822 5820 5819 5816 5815 5814 5813 5812 5811 5810 5810 5809 5809 5808 5808 5808 5807 5807 5807 5807 5807 5807 5807 5807 5808 5808 5808 5809 5810 5810 5811
5844 5842 5840 5837 5835 5832 5829 5827 5825 5823 5820 5818 5815 5813 5812 5809 5807 5806 5805 5804 5803 5803 5802 5802 5801 5801 5801 5801 5800 5800 5800 5800 5799 5800 5800 5800 5801 5801 5801 5802 5803 5803 5804
5838 5836 5834 5831 5829 5826 5824 5821 5818 5815 5813 5811 5809 5807 5805 5802 5800 5799 5797 5797 5796 5795 5795 5794 5794 5793 5793 5793 5793 5793 5793 5792 5792 5792 5792 5792 5793 5794 5794 5795 5795 5796 5797
5832 5830 5828 5825 5822 5820 5817 5814 5811 5809 5806 5804 5802 5801 5798 5795 5793 5791 5790 5789 5788 5787 5787 5786 5786 5786 5786 5785 5785 5785 5785 5785 5784 5784 5785 5785 5785 5786 5787 5787 5788 5789 5789
5826 5824 5821 5819 5816 5814 5810 5807 5805 5801 5799 5797 5795 5793 5791 5788 5786 5784 5783 5781 5780 5779 5779 5779 5778 5778 5777 5777 5777 5777 5777 5777 5777 5777 5777 5777 5778 5778 5779 5780 5781 5781 5782
5820 5817 5815 5813 5810 5807 5804 5801 5798 5795 5792 5790 5787 5785 5783 5781 5779 5777 5775 5773 5772 5771 5771 5770 5770 5770 5769 5769 5769 5769 5769 5769 5769 5769 5769 5769 5770 5770 5771 5772 5773 5774 5775
5813 5811 5808 5806 5804 5801 5797 5794 5791 5788 5785 5783 5780 5778 5776 5774 5771 5769 5767 5766 5765 5763 5763 5762 5761 5761 5761 5761 5761 5761 5761 5760 5760 5761 5761 5761 5762 5762 5763 5764 5765 5766 5767
5807 5805 5802 5800 5797 5794 5791 5788 5785 5782 5778 5776 5773 5771 5769 5767 5764 5761 5760 5758 5757 5755 5754 5754 5754 5754 5753 5753 5753 5753 5753 5753 5753 5753 5753 5754 5754 5754 5755 5756 5757 5758 5759